Regional Weather Roundup
Issued by NWS

Home | Current Version | Previous Version | Text Only | Print | Product List | Glossary Off
Versions: 1 2 3 4 5 6 7 8 9 10 11 12 13 14 15 16 17 18 19 20 21 22 23 24 25 26 27 28 29 30 31 32 33 34 35 36 37 38 39 40 41 42 43 44 45 46 47 48 49 50

061
ASUS44 KMEG 011000
RWRTN
TENNESSEE HOURLY STATE WEATHER ROUNDUP
NATIONAL WEATHER SERVICE MEMPHIS TN
500 AM CDT SAT OCT 01 2016

TNZ002-004-019-021-049-052-054-088>092-011100-
WEST TENNESSEE

CITY           SKY/WX    TMP DP  RH WIND       PRES   REMARKS
MEMPHIS INTL   PTCLDY    58  57  97 CALM      30.06R
NWS MEMPHIS      N/A     56 N/A N/A MISG        N/A
JACKSON          N/A    N/A N/A N/A MISG      30.05S
DYERSBURG      CLEAR    N/A N/A N/A MISG        N/A
PARIS          CLOUDY    57  55  94 SW3       30.04R
$$

TNZ008-025-027-028-033-062-065-066-011100-
NORTH MIDDLE TENNESSEE

CITY           SKY/WX    TMP DP  RH WIND       PRES   REMARKS
NASHVILLE      PTCLDY    56  54  93 S6        30.04S
CLARKSVILLE    CLOUDY    60  58  92 SW5       30.02S
SMYRNA         PTCLDY    54  52  93 S5        30.06R
COOKEVILLE       N/A     48  48 100 CALM      30.04S VSB 3/4
CROSSVILLE     PTCLDY    50  48  93 CALM      30.07S
$$

TNZ061-075-076-078-094-096-097-011100-
SOUTH MIDDLE TENNESSEE

CITY           SKY/WX    TMP DP  RH WIND       PRES   REMARKS
SHELBYVILLE    CLOUDY    54  54 100 E5        30.07S
$$

TNZ017-018-042-046-047-011100-
NORTHEAST TENNESSEE

CITY           SKY/WX    TMP DP  RH WIND       PRES   REMARKS
TRI CITIES     FOG       50  50 100 CALM      30.09S VSB 1/4
$$

TNZ012-013-036-069-073-074-011100-
CENTRAL EAST TENNESSEE

CITY           SKY/WX    TMP DP  RH WIND       PRES   REMARKS
KNOXVILLE      CLEAR     50  46  86 NE3       30.06F
OAK RIDGE      CLEAR     50  47  89 CALM      30.08F
GATLINBURG     CLEAR     45  45 100 E3        30.08S
$$

TNZ083-085-099-011100-
SOUTHEAST TENNESSEE

CITY           SKY/WX    TMP DP  RH WIND       PRES   REMARKS
CHATTANOOGA    CLEAR     52  49  89 CALM      30.07F
$$

SKY/WX REPORTED AS FAIR MEANS FEW OR NO CLOUDS BELOW
12 THOUSAND FEET.





USA.gov is the U.S. government's official web portal to all federal, state and local government web resources and services.